OBJECT F (52802 NORAD) Tracking and Keplerian Element Data

This shows tracking and keplerian element data for the satellite.

Feedback or suggestion? Click here.




ElementValue
Catalog52802
NameOBJECT F
Epoch Orbit61
Epoch Day159.69096869
Epoch Year2022
RAAN269.1814
Inclination41.4702
Eccentricity0.009535
Argument of Perigee150.1676
Mean Anonmoly87.4086
Mean Motion16.05869837
Decay Rate0.01641942
L11 52802U 22060F 22159.69096869 .01641942 75456-5 11327-2 0 9994
L22 52802 41.4702 269.1814 0095350 150.1676 87.4086 16.05869837 619

Live tracking and technical data element details for OBJECT F (NORAD 52802). OBJECT F can be tracked NOW for your location showing map with azimuth and elevation plus other details from your city location.

Track the satellite on the map from your city or location and see movement details for azimuth, elevation, latitude, longitude, range, height, and movement on the map or in text.







IsCatalogInMostPopularTable: catalog: 52802, numindb: 6
Update: records affected: 1



GetName: 52802 OBJECT F

Hit Count: updated at: Thu, 06 Oct 2022 04:24:10 GMT